EW3084 Weather Reports


Display with metric or nautical units.
time (UTC)temp
F
wind
direction
speed
MPH
gust
MPH
rain 1hr
in
rain 24hr
in
rain mn
in
humidity
%
barometer
mb
20260504234503 44 284 4.0 8.0 0.00 0.03 0.00 82
20260504233603 45 277 5.0 12.0 0.00 0.03 0.00 81
20260504232703 45 276 5.0 12.0 0.00 0.03 0.00 80
20260504231803 45 277 5.0 16.0 0.00 0.03 0.00 80
20260504230903 46 263 6.0 13.0 0.00 0.03 0.00 79
20260504230003 46 267 7.0 18.0 0.00 0.03 0.00 78
20260504225403 46 270 6.0 18.0 0.00 0.03 0.00 78
20260504224503 46 276 5.0 14.0 0.00 0.03 0.00 78
20260504223819 46 263 6.0 15.0 0.00 0.03 0.00 77
20260504222703 47 269 7.0 16.0 0.00 0.03 0.00 76
20260504221803 47 267 8.0 17.0 0.00 0.03 0.00 75
20260504221117 47 267 6.0 13.0 0.00 0.03 0.00 74
20260504220216 47 270 8.0 18.0 0.00 0.03 0.00 72
20260504215403 48 264 8.0 16.0 0.00 0.03 0.03 70
20260504214503 48 264 8.0 21.0 0.00 0.03 0.03 67
20260504213603 48 269 8.0 17.0 0.00 0.03 0.03 64
20260504212703 48 274 7.0 14.0 0.00 0.03 0.03 61
20260504212017 48 272 7.0 14.0 0.00 0.03 0.03 59
20260504210903 48 267 8.0 19.0 0.00 0.03 0.03 56
20260504210003 49 264 7.0 17.0 0.00 0.03 0.03 54
20260504205615 49 265 7.0 17.0 0.00 0.03 0.03 54
20260504204719 49 276 6.0 13.0 0.00 0.03 0.03 54
20260504203603 49 267 6.0 15.0 0.00 0.03 0.03 53
20260504202703 49 273 6.0 15.0 0.00 0.03 0.03 53
20260504202017 49 272 6.0 12.0 0.00 0.03 0.03 53
20260504201116 50 267 8.0 15.0 0.00 0.03 0.03 53
20260504200003 50 270 8.0 22.0 0.00 0.03 0.03 51
20260504195619 50 269 6.0 15.0 0.00 0.03 0.03 51
20260504194503 51 270 8.0 16.0 0.00 0.03 0.03 51
20260504193818 51 271 8.0 16.0 0.00 0.03 0.03 51
20260504192703 51 265 7.0 16.0 0.00 0.03 0.03 50
20260504191803 52 267 8.0 16.0 0.00 0.03 0.03 49
20260504190903 52 271 7.0 16.0 0.00 0.03 0.03 48
20260504190003 52 271 7.0 15.0 0.00 0.03 0.03 46
20260504185619 52 273 7.0 20.0 0.00 0.03 0.03 45
20260504184503 53 272 6.0 13.0 0.00 0.03 0.03 43
20260504183603 53 270 7.0 14.0 0.00 0.03 0.03 42
20260504182703 54 272 6.0 14.0 0.00 0.03 0.03 41
20260504181803 54 270 7.0 17.0 0.00 0.03 0.03 39
20260504181115 55 274 7.0 18.0 0.00 0.03 0.03 39
20260504180003 56 276 8.0 16.0 0.00 0.03 0.03 36
20260504175403 56 264 8.0 18.0 0.00 0.03 0.03 36
20260504174503 57 275 8.0 20.0 0.00 0.03 0.03 33
20260504173603 57 284 6.0 15.0 0.00 0.03 0.03 30
20260504172703 57 278 8.0 16.0 0.00 0.03 0.03 31
20260504171803 57 284 7.0 15.0 0.00 0.03 0.03 30
20260504170903 58 279 8.0 16.0 0.00 0.03 0.03 30
20260504160218 58 276 9.0 16.0 0.01 0.03 0.03 46
20260504150903 57 281 9.0 17.0 0.00 0.02 0.02 48
20260504140903 52 287 4.0 13.0 0.02 0.02 0.02 83
20260504140217 50 297 2.0 7.0 0.02 0.02 0.02 89
20260504130217 54 250 5.0 12.0 0.00 0.00 0.00 64
20260504100216 51 287 9.0 15.0 0.00 0.01 0.00 73
20260504081803 49 262 2.0 7.0 0.00 0.02 0.00 89
20260504080903 49 257 4.0 9.0 0.00 0.02 0.00 96
20260504050218 44 160 0.0 1.0 0.00 0.13 0.00 100
20260504045403 44 160 0.0 1.0 0.00 0.13 0.00 100
20260504044503 44 161 0.0 1.0 0.00 0.13 0.00 100
20260504043816 44 155 0.0 3.0 0.00 0.13 0.00 100
20260504042703 44 0 0.0 0.0 0.00 0.13 0.00 100
20260504041803 44 150 0.0 1.0 0.00 0.13 0.00 100
20260504041118 44 150 0.0 1.0 0.00 0.13 0.00 100
20260504040003 44 150 0.0 2.0 0.00 0.13 0.00 100
20260504035403 44 150 0.0 1.0 0.00 0.13 0.00 100
20260504034503 44 150 0.0 1.0 0.00 0.13 0.00 100
20260504033603 44 150 0.0 1.0 0.00 0.13 0.00 100
20260504032703 44 150 0.0 1.0 0.00 0.13 0.00 100
20260504031803 44 0 0.0 0.0 0.00 0.13 0.00 100
20260504030903 44 0 0.0 0.0 0.00 0.13 0.00 100
20260504030003 44 0 0.0 0.0 0.00 0.13 0.00 100
20260504025403 44 0 0.0 0.0 0.00 0.13 0.00 100
20260504024503 44 0 0.0 0.0 0.00 0.13 0.00 100
20260504023603 44 0 0.0 0.0 0.00 0.13 0.00 100
20260504022919 44 0 0.0 0.0 0.00 0.13 0.00 100
20260504021803 44 0 0.0 0.0 0.00 0.13 0.00 100
20260504020903 44 150 0.0 1.0 0.00 0.13 0.00 100
20260504020003 44 0 0.0 0.0 0.00 0.14 0.00 100
20260504015617 44 0 0.0 0.0 0.00 0.14 0.00 100
20260504014716 44 0 0.0 0.0 0.00 0.14 0.00 100
20260504013603 44 0 0.0 0.0 0.00 0.14 0.00 100
20260504012703 43 0 0.0 0.0 0.00 0.14 0.00 100
20260504011803 43 0 0.0 0.0 0.00 0.14 0.00 100
20260504010903 43 0 0.0 0.0 0.00 0.14 0.00 100
20260504010003 43 150 0.0 1.0 0.00 0.14 0.00 100
20260504005403 43 150 0.0 1.0 0.00 0.14 0.00 100
20260504004503 43 0 0.0 0.0 0.00 0.14 0.00 100
20260504003603 43 0 0.0 0.0 0.00 0.14 0.00 100
20260504002703 43 0 0.0 0.0 0.00 0.14 0.00 100
20260504001803 43 0 0.0 0.0 0.00 0.14 0.00 100
20260504000903 43 0 0.0 0.0 0.00 0.15 0.00 100
20260504000216 43 0 0.0 0.0 0.00 0.15 0.00 100
20260503235403 43 0 0.0 0.0 0.00 0.16 0.00 100